Weather in Zinovkino

Russia / Bryansk Oblast     52°27′01″N   34°34′57″E
temp.,
°C
wind,
m/s
gust,
m/s
humid.,
%
clouds,
%
prec.,
mm/h
press.,
hPa
HPBL,
m
13 august, sat
sat1300:00+19ene4127099 0.0 1021271
03:00+17ene41279100 0.5 1020245
06:00+17ene41177100 0.0 1020262
09:00+22e5863100 0.0 1019380
12:00+26e4552100 0.0 1019830
15:00+23e3668100 0.0 1019195
18:00+22ene3774100 0.0 1018207
21:00+22ene3968100 0.0 1017219
14 august, sun
sun1400:00+21ene4967100 0.0 1017229
03:00+20ene4966100 0.0 1016178
06:00+23ese51351100 0.0 1016399
09:00+22ese4962100 0.0 1016214
12:00+23e3665100 0.0 1017253
15:00+24e585794 0.0 1017514
18:00+25e5105634 0.0 1016633
21:00+21ene412759 0.0 1016288
15 august, mon
mon1500:00+20ene4127575 0.1 1016282
03:00+20ene4116840 0.1 1016291
06:00+18ene413715 0.0 1016281
09:00+23e5105298 0.0 1015408
12:00+29e693756 0.0 1015987
15:00+30e693692 0.0 10141485
18:00+29e6104184 0.0 1014829
21:00+25e61446100 0.0 1014460
16 august, tue
tue1600:00+24e51547100 0.3 1015422
03:00+23e51246100 0.3 1015401
06:00+22e51448100 0.0 1015467
09:00+23ese51346100 0.0 1016587
12:00+26ese61040100 0.0 1016858
15:00+28e783471 0.0 10161383
18:00+26e5938100 0.0 1016941
21:00+22ene41149100 0.0 1016257
17 august, wed
wed1700:00+20ene4115391 0.0 1015209
03:00+21ne3852100 0.0 1013194
06:00+23ene51550100 0.0 1013490
09:00+21ese41356100 0.2 1014443
12:00+23ene61358100 0.1 1013585
15:00+27e7123875 0.1 10131229
18:00+26ene6125040 0.4 1012661
21:00+21ne6166151 1.0 1011469